Погода в Каменна-Гуре

Польша     50°46′41″N   16°01′38″E
темп.,
°C
ветер,
м/с
пор.,
м/с
влажн.,
%
обл.,
%
осадки,
мм/ч
давл.,
гПа
погр.,
м
3 марта, ср
ср301:00+4ююз22660 0.0 103325
04:00+3ююз23570 0.0 103227
07:00+2ююз23620 0.0 103129
10:00+8ююз34512 0.0 1030225
13:00+10ююз345118 0.0 1028431
16:00+9юз245713 0.0 1025351
19:00+4юз22806 0.0 102531
22:00+4юз237788 0.0 102341
4 марта, чт
чт401:00+3юз238476 0.0 102239
04:00+3юз238988 0.0 102035
07:00+2юз229387 0.0 101935
10:00+8юз266916 0.0 1018549
13:00+11з365552 0.0 10161208
16:00+8зсз2573100 0.1 1014789
19:00+5с2491100 1.3 1013325
22:00+2с3796100 7.3 1014387
5 марта, пт
пт501:000ссз3796100 8.1 1015485
04:000ссз3696100 0.8 1017394
07:00−3ссв4795100 2.6 1019528
10:00−2ссв578699 0.9 1021757
13:00−1с467080 1.0 10221108
16:00−1с476677 0.1 10231337
19:00−3сз278070 0.2 1026350
22:00−4ссз288126 0.1 1028599
6 марта, сб
сб601:00−6сз258628 0.1 1030310
04:00−6сз268818 0.0 1031352
07:00−6сз248824 0.0 1033300
10:00−2ссз22540 0.0 1034805
13:000сз23430 0.0 10331241
16:000сз23480 0.0 10321011
19:00−4з11690 0.0 103122
22:00−4юз12680 0.0 103125
7 марта, вс
вс701:00−4юз23680 0.0 102967
04:00−5юз23700 0.0 102791
07:00−5юз23670 0.0 1026105
10:00+1юз244522 0.0 1024496
13:00+4зюз243947 0.0 1022929
16:00+3зюз254758 0.0 1020903
19:00−2з126762 0.0 101926
22:00−2зсз277254 0.0 1019245